CZ-4C DEB

Satellite information

Favourite Embed

Satellite Type and Status

DEBRISIN ORBIT

Key statistics

Satellite CZ-4C DEB at a glance.

Uptime

4312

Days in orbit

Revolutions

≈ 14.9

Per day

Orbit

SSO

Sun Synchronous Orbit

Inclination

98.0

Latest

Satellite identification and parameters

Extended collection of information and parameters for CZ-4C DEB.

Object identification

Identified? True

Debris? True

Object name: CZ-4C DEB

International designator: 2013-037E

Object number (NORAD): 39212

Object ID (CCSDS): 39212

Country: PEOPLES REPUBLIC OF CHINA (PRC)

Current information (Y/N): Y

RCS size: LARGE

Orbital parameters

Period: 96.869 minutes

Inclination: 97.9545 deg

SMA: 6986.872 km

Apoapsis: 610.824 km

Periapsis: 606.65 km

RAAN: 138.558 deg

Eccentricy: 0.0002987

Argument of periapsis: 208.441 deg

Mean anomaly: 151.6643 deg

Mean motion: 14.86546739 rev/day

Mean motion (dot): 0.00005153 rev/day2

B* drag term: 0.00058783 1/REarth

Two-line elements (TLE)

Creation date: May 9, 2025, 2:46 a.m.

Reference frame: TEME

Reference center: EARTH

Epoch: May 8, 2025, 10:20 p.m. UTC

TLE line 0: 0 CZ-4C DEB

TLE line 1: 1 39212U 13037E 25128.93068369 .00005153 00000-0 58783-3 0 9991

TLE line 2: 2 39212 97.9545 138.5580 0002987 208.4410 151.6643 14.86546739634690

Live tracking on map

Real-time ground track for satellite CZ-4C DEB.

In-orbit conjunctions

A list of the most updated potential collisions computed for object CZ-4C DEB.

Target Orbit TCA Probability of collision Miss distance Type
CZ-2C R/B SSO 2024-09-18 12:26:08 0.0002027045 585.0 (m) ROCKET BODY

Associated space launch

CZ-4C DEB was lifted into orbit during the mission ‘Long March 4C | Shijian 15, Shiyan 7 & ChuangXin 3’, on board a Long March 4C space rocket.

The launch took place on July 19, 2013, 11:37 p.m. from Launch Complex 9.

For more information about the launch, click the button.

Launch to space Long March 4C | Shijian 15, Shiyan 7 & ChuangXin 3
Long March 4C | Shijian 15, Shiyan 7 & ChuangXin 3

Agency: N/A

Status: Launch Successful

Launch date: July 19, 2013, 11:37 p.m. UTC

Rocket: Long March 4C

Launch pad: Launch Complex 9

Location: Taiyuan Satellite Launch Center, People's Republic of China

...

Latest news about this satellite

There are no fresh news available about this satellite. Check back as we update our databases every day.


Newsletter sign-up

Weekly statistics, charts and insights to help you stay on top of the space industry.